Winston-Salem, NC

6:58 PM EDT on October 19, 2017 (GMT -0400)
Smith Reynolds

Weather History for KINT - March, 2013

Change the Weather History Date:

Tuesday, March 5, 2013

  Actual Average Record
Temperature  
Mean Temperature 42 °F -  
Max Temperature 46 °F 54 °F 83 °F (1976)
Min Temperature 37 °F 35 °F 7 °F (1978)
Degree Days  
Heating Degree Days 24    
Moisture  
Dew Point 36 °F    
Average Humidity 79    
Maximum Humidity 100    
Minimum Humidity 40    
Precipitation  
Precipitation 0.37 in - - ()
Sea Level Pressure  
Sea Level Pressure 29.84 in    
Wind  
Wind Speed 3 mph (East)    
Max Wind Speed 13 mph    
Max Gust Speed -    
Visibility 6 miles    
Events Rain    
Averages and records for this station are not official NWS values.
T = Trace of Precipitation, MM = Missing Value Source: NWS Daily Summary

Daily Weather History Graph

Daily Weather History Graph

Search for Another Location

Airport or City:

Trip Planner

Search our weather history database for the weather conditions in past years. The results will help you decide how hot, cold, wet, or windy it might be!

Date:

Astronomy

Mar. 05, 2013 Rise Set
Actual Time 6:45 AM EST 6:19 PM EST
Civil Twilight 6:19 AM EST 6:45 PM EST
Nautical Twilight 5:50 AM EST 7:15 PM EST
Astronomical Twilight 5:20 AM EST 7:44 PM EST
Moon 1:48 AM EST (3/5) 12:05 PM EST (3/5)
Length of Visible Light 12h 25m
Length of Day
11h 34m
Last Quarter, 41% of the Moon is Illuminated
Mar 5
Last Quarter
Mar 11
New
Mar 19
First Quarter
Mar 27
Full
Apr 3
Last Quarter

Hourly Weather History & Observations

Time (EST) Temp. Windchill Dew Point Humidity Pressure Visibility Wind Dir Wind Speed Gust Speed Precip Events Conditions
12:54 AM 39.0 °F - 19.0 °F 45% 30.05 in 10.0 mi Calm Calm - N/A   Clear
2:54 AM 42.1 °F - 19.9 °F 41% 30.04 in 10.0 mi Calm Calm - N/A   Overcast
3:54 AM 39.9 °F - 23.0 °F 51% 30.04 in 10.0 mi Calm Calm - N/A   Scattered Clouds
4:54 AM 37.9 °F - 25.0 °F 60% 30.04 in 10.0 mi Calm Calm - N/A   Clear
5:54 AM 37.0 °F - 24.1 °F 59% 30.04 in 10.0 mi Calm Calm - N/A   Partly Cloudy
6:54 AM 37.9 °F - 24.1 °F 57% 30.02 in 10.0 mi Calm Calm - N/A   Partly Cloudy
7:54 AM 39.2 °F - 23.0 °F 52% 30.03 in 10.0 mi Calm Calm - N/A   Partly Cloudy
8:54 AM 45.0 °F 43.5 °F 23.0 °F 42% 30.02 in 10.0 mi SE 3.5 mph - N/A   Mostly Cloudy
9:54 AM 46.0 °F 44.8 °F 23.0 °F 40% 30.01 in 10.0 mi SSE 3.5 mph - N/A   Unknown
10:54 AM 45.0 °F 41.8 °F 26.1 °F 48% 29.99 in 10.0 mi SSE 5.8 mph - 0.00 in Rain Light Rain
11:32 AM 42.8 °F 40.1 °F 33.8 °F 70% 29.97 in 8.0 mi South 4.6 mph - 0.00 in Rain Light Rain
11:54 AM 43.0 °F 38.8 °F 36.0 °F 76% 29.97 in 7.0 mi South 6.9 mph - 0.00 in Rain Light Rain
12:19 PM 42.8 °F 38.6 °F 35.6 °F 76% 29.95 in 9.0 mi South 6.9 mph - 0.00 in   Overcast
12:54 PM 44.1 °F 42.5 °F 37.9 °F 79% 29.94 in 6.0 mi SSW 3.5 mph - 0.01 in Rain Light Rain
1:15 PM 44.6 °F 41.4 °F 37.4 °F 76% 29.92 in 7.0 mi SSW 5.8 mph - 0.00 in Rain Light Rain
1:45 PM 44.6 °F 43.1 °F 39.2 °F 81% 29.89 in 7.0 mi Variable 3.5 mph - 0.00 in   Overcast
1:54 PM 45.0 °F 42.6 °F 39.9 °F 82% 29.90 in 7.0 mi Variable 4.6 mph - 0.00 in Rain Light Rain
2:54 PM 45.0 °F 43.5 °F 39.9 °F 82% 29.87 in 5.0 mi South 3.5 mph - 0.01 in Rain Light Rain
3:23 PM 44.6 °F - 41.0 °F 87% 29.86 in 2.5 mi Calm Calm - 0.03 in Rain Light Rain
3:31 PM 44.6 °F - 41.0 °F 87% 29.87 in 3.0 mi Calm Calm - 0.04 in Rain Light Rain
3:54 PM 44.1 °F - 41.0 °F 89% 29.87 in 4.0 mi Calm Calm - 0.05 in Rain Light Rain
4:12 PM 44.6 °F 42.2 °F 41.0 °F 87% 29.86 in 3.0 mi SSE 4.6 mph - 0.01 in Rain Light Rain
4:32 PM 42.8 °F 41.1 °F 41.0 °F 93% 29.84 in 2.5 mi ESE 3.5 mph - 0.01 in Rain Light Rain
4:54 PM 43.0 °F 41.3 °F 42.1 °F 97% 29.84 in 2.0 mi SE 3.5 mph - 0.02 in Rain Light Rain
5:08 PM 42.8 °F - 42.8 °F 100% 29.83 in 2.0 mi Calm Calm - 0.00 in Rain Light Rain
5:22 PM 42.8 °F 41.1 °F 41.0 °F 93% 29.81 in 2.0 mi ENE 3.5 mph - 0.00 in Rain Light Rain
5:35 PM 42.8 °F 39.3 °F 41.0 °F 93% 29.80 in 1.8 mi ESE 5.8 mph - 0.01 in   Overcast
5:54 PM 43.0 °F 39.5 °F 41.0 °F 93% 29.79 in 1.8 mi East 5.8 mph - 0.01 in   Overcast
6:17 PM 42.8 °F 39.3 °F 41.0 °F 93% 29.76 in 1.8 mi ENE 5.8 mph - N/A   Overcast
6:25 PM 42.8 °F 38.6 °F 41.0 °F 93% 29.75 in 2.5 mi ENE 6.9 mph - N/A   Overcast
6:54 PM 42.1 °F 38.4 °F 41.0 °F 96% 29.73 in 2.5 mi East 5.8 mph - N/A   Overcast
7:37 PM 42.8 °F 38.0 °F 41.0 °F 93% 29.69 in 1.5 mi East 8.1 mph - 0.00 in Rain Light Rain
7:54 PM 42.1 °F 38.4 °F 41.0 °F 96% 29.69 in 2.0 mi ENE 5.8 mph - 0.03 in Rain Rain
8:54 PM 42.1 °F 36.6 °F 41.0 °F 96% 29.70 in 3.0 mi NW 9.2 mph - 0.15 in Rain Light Rain
9:05 PM 42.8 °F 38.0 °F 41.0 °F 93% 29.66 in 2.0 mi NE 8.1 mph - 0.05 in Rain Heavy Rain
9:13 PM 42.8 °F 37.5 °F 41.0 °F 93% 29.65 in 3.0 mi North 9.2 mph - 0.07 in Rain Light Rain
9:28 PM 42.8 °F 36.6 °F 39.2 °F 87% 29.65 in 8.0 mi NNE 11.5 mph - 0.07 in   Overcast
9:54 PM 42.1 °F 36.1 °F 39.9 °F 92% 29.65 in 10.0 mi North 10.4 mph - 0.07 in   Overcast
10:20 PM 42.8 °F 36.2 °F 39.2 °F 87% 29.66 in 10.0 mi NNW 12.7 mph - 0.00 in   Overcast
10:54 PM 41.0 °F 35.2 °F 39.0 °F 93% 29.62 in 10.0 mi NE 9.2 mph - 0.01 in   Overcast
11:05 PM 41.0 °F 35.2 °F 39.2 °F 93% 29.61 in 10.0 mi NE 9.2 mph - N/A   Overcast
11:54 PM 41.0 °F 37.1 °F 39.0 °F 93% 29.60 in 3.0 mi NNE 5.8 mph - 0.01 in Rain Light Rain